Content
SEND FEEDBACK

Daily
Averages
Monthly
Summary
United States of America

GRUNDY CENTER, IOWA


Home > North America > United States > Iowa
Elevation: 1020 feet     Latitude: 42 22N     Longitude: 092 46W

WEATHER
 
SELECT A DAY
Number of Records: 187,639;   Date Range: 9/4/96 - 7/20/14
 
SHARE

PRINT THIS DATA

[ ← Previous Day ]
WEATHER ALMANAC - JANUARY 3, 2013
[ Next Day → ]
[ °C ]   °F
Weather ElementAverageHighLow
Temperature15.1 °F26.6 °F (1:09 am)6.1 °F (8:53 pm)
Dewpoint9.6 °F21.9 °F (2:53 am)1.9 °F (8:53 pm)
Humidity79 %92 % (11:53 pm)71 % (5:53 am)
Barometer30.30 in30.40 in (6:53 pm)30.12 in (1:09 am)
Wind Speed13.6 mph19.6 mph (4:53 am)
Wind Gust24.2 mph (4:53 am)
Weather ElementAverage
Visibility10 mi
Wind DirectionWNW (288.4 °)

Weather ElementTotal
Precipitation---
Heating Degree Days48.7 (Base 65)
Averaged from 31 records on January 3, 2013
WEATHER CONDITIONS BREAKOUT
WIND DIRECTION BREAKOUT
WEATHER BY HOUR - JANUARY 3, 2013
[ °C ]   °F
Local TimeTemperatureDewpointHumidityBarometerVisibilityWind DirectionWind SpeedGust SpeedPrecipitationEventsConditions
1:09 AM26.6 °F21.2 °F80 %30.12 in10.0 miWNW (290°)9.2 mphOvercast
1:53 AM26.1 °F21.0 °F81 %30.17 in10.0 miWNW (300°)10.4 mphOvercast
2:53 AM26.1 °F21.9 °F84 %30.19 in10.0 miWNW (290°)9.2 mphOvercast
3:53 AM26.1 °F21.9 °F84 %30.19 in10.0 miWest (280°)5.8 mphOvercast
4:45 AM26.6 °F21.2 °F80 %30.16 in10.0 miNW (310°)13.8 mphOvercast
4:53 AM25.0 °F19.9 °F81 %30.22 in10.0 miNNW (330°)19.6 mph24.2 mphOvercast
5:25 AM21.2 °F15.8 °F80 %30.19 in10.0 miNW (320°)17.3 mph23.0 mphOvercast
5:53 AM19.0 °F10.9 °F71 %30.26 in10.0 miNNW (330°)13.8 mphOvercast
6:53 AM17.1 °F10.9 °F77 %30.28 in10.0 miNW (310°)17.3 mphOvercast
7:04 AM15.8 °F8.6 °F73 %30.24 in10.0 miNW (310°)19.6 mphOvercast
7:36 AM12.2 °F6.8 °F79 %30.25 in10.0 miNW (310°)17.3 mphScattered Clouds
7:53 AM12.9 °F7.0 °F77 %30.31 in10.0 miNW (310°)16.1 mphClear
8:53 AM12.0 °F6.1 °F77 %30.33 in10.0 miNW (310°)17.3 mphClear
9:53 AM10.9 °F5.0 °F77 %30.34 in10.0 miNW (310°)17.3 mphClear
10:53 AM12.0 °F6.1 °F77 %30.35 in10.0 miWNW (300°)18.4 mphMostly Cloudy
11:53 AM12.9 °F7.0 °F77 %30.35 in10.0 miWNW (290°)18.4 mphPartly Cloudy
12:34 PM12.2 °F6.8 °F79 %30.29 in10.0 miWNW (290°)19.6 mphMostly Cloudy
12:50 PM14.0 °F6.8 °F73 %30.29 in10.0 miWNW (290°)17.3 mphMostly Cloudy
12:53 PM14.0 °F7.0 °F74 %30.34 in10.0 miWNW (300°)19.6 mphMostly Cloudy
1:03 PM14.0 °F6.8 °F73 %30.29 in10.0 miWNW (290°)18.4 mphScattered Clouds
1:53 PM15.1 °F8.1 °F74 %30.33 in10.0 miWNW (290°)15.0 mphPartly Cloudy
2:53 PM15.1 °F8.1 °F74 %30.35 in10.0 miWNW (290°)12.7 mphClear
3:53 PM14.0 °F8.1 °F77 %30.37 in10.0 miWest (280°)9.2 mphClear
4:53 PM12.9 °F6.1 °F74 %30.38 in10.0 miWest (280°)9.2 mphClear
5:53 PM9.0 °F5.0 °F84 %30.39 in10.0 miWest (260°)8.1 mphClear
6:53 PM9.0 °F3.9 °F80 %30.40 in10.0 miWest (260°)10.4 mphClear
7:53 PM10.0 °F6.1 °F84 %30.39 in10.0 miWest (270°)8.1 mphClear
8:53 PM6.1 °F1.9 °F83 %30.37 in10.0 miWSW (250°)8.1 mphClear
9:53 PM6.1 °F3.0 °F87 %30.36 in10.0 miWSW (240°)5.8 mphClear
10:53 PM8.1 °F5.0 °F87 %30.34 in10.0 miSW (220°)11.5 mphClear
11:53 PM7.0 °F5.0 °F92 %30.32 in10.0 miSW (230°)8.1 mphClear
Hourly data recorded from KMIW, located miles away from Grundy Center, Iowa







STORIES FROM OUR PARTNERS